Notices

What's New in latest Release from April 7th, 2021:

- Updated Glossary, including Speed of Maximum Gust, and Total Hourly Precipitation

- Updated national and regional climate services offices contacts and prices information

- Addition of station inventory lists for 1981-2010, 1971-2000, and 1961-1990 Normals.

If you haven't already, please take our survey and provide feedback about our website: https://eccc.sondage-survey.ca/f/LanguageSelection.aspx?s=442ca660-fcf1-47c0-95a9-59707d6fd709

Hourly Data Report for July 24, 2018

TORONTO CITY
ONTARIO
Current Station Operator: ECCC - MSC

43°40'00.000" N
79°24'00.000" W
112.50 m
6158355
71508
XTO

Download Data

Hourly Data (July 2018)
Hourly Data Report for July 24, 2018
TIME
LST
Temp Definition
°C
Dew Point Definition
°C
Rel Hum Definition
%
Precip. Amount Definition
mm

Wind Dir Definition
10's deg

Wind Spd Definition
km/h
Visibility Definition
km
Stn Press Definition
kPa
Hmdx Definition


Wind Chill Definition


Weather Definition


00:00 22.6 19.6 83 0.0 LegendMM LegendMM   100.08 30   LegendNANA
01:00 22.7 19.6 83 0.0 LegendMM LegendMM   100.08 30   LegendNANA
02:00 22.7 19.5 82 0.0 LegendMM LegendMM   100.07 30   LegendNANA
03:00 22.9 19.5 81 0.0 LegendMM LegendMM   100.07 30   LegendNANA
04:00 22.6 19.4 82 0.0 LegendMM LegendMM   100.08 30   LegendNANA
05:00 22.1 19.4 85 0.0 LegendMM LegendMM   100.10 29   LegendNANA
06:00 22.5 19.6 84 0.0 LegendMM LegendMM   100.13 30   LegendNANA
07:00 24.5 20.2 77 0.0 LegendMM LegendMM   100.12 32   LegendNANA
08:00 25.5 19.8 70 0.0 LegendMM LegendMM   100.17 33   LegendNANA
09:00 25.3 19.1 69 0.0 LegendMM LegendMM   100.19 32   LegendNANA
10:00 25.1 19.6 72 0.0 LegendMM LegendMM   100.20 32   LegendNANA
11:00 26.8 19.3 64 0.0 LegendMM LegendMM   100.18 34   LegendNANA
12:00 27.9 18.9 58 0.0 LegendMM LegendMM   100.14 35   LegendNANA
13:00 27.9 19.4 60 0.0 LegendMM LegendMM   100.09 35   LegendNANA
14:00 29.4 19.3 55 0.0 LegendMM LegendMM   100.03 36   LegendNANA
15:00 29.6 18.7 52 0.0 LegendMM LegendMM   99.97 36   LegendNANA
16:00 28.9 18.9 55 0.0 LegendMM LegendMM   99.92 36   LegendNANA
17:00 28.6 19.0 56 0.0 LegendMM LegendMM   99.88 35   LegendNANA
18:00 24.1 19.6 76 2.6 LegendMM LegendMM   99.91 31   LegendNANA
19:00 22.8 20.8 89 14.6 LegendMM LegendMM   99.88 31   LegendNANA
20:00 22.7 20.7 89 0.0 LegendMM LegendMM   99.94 31   LegendNANA
21:00 22.6 20.5 88 0.0 LegendMM LegendMM   99.95 31   LegendNANA
22:00 22.8 20.8 89 0.0 LegendMM LegendMM   99.98 31   LegendNANA
23:00 22.7 20.5 87 0.0 LegendMM LegendMM   99.94 31   LegendNANA

Notes on Data Quality.

Legend

  • E = Estimated
  • M = Missing
  • NA = Not Available*
  • [empty] = Indicates an unobserved value
Date modified: